Flag for U.S.A. Weather past 2 weeks in Montpelier, Vermont, U.S.A.

Now
74 °F

Sunny.


Feels Like: 75 °F
Forecast: 63 / 89 °F
Wind: No wind

Location: Knapp State Airport

Current Time: Jul 29, 2015 at 9:33:41 AM

Latest Report: Jul 29, 2015 at 8:51 AM


Visibility: 10 mi

Pressure: 30.02 "Hg

Humidity: 76%

Dew point: 66 °F

Location of MontpelierLocation

Historic Weather in Montpelier — Graph

°F

Montpelier temperature yesterday

Maximum temperature yesterday: 84 °F (at 3:51 PM)
Minimum temperature yesterday: 61 °F (at 5:51 AM)
Average temperature yesterday: 71 °F

Past Weeks' High & Low Weather Summary

 TemperatureHumidityPressure
High84 °F (Jul 28, 3:51 PM)100% (Jul 17, 3:51 AM)30.18 "Hg (Jul 17, 3:51 AM)
Low43 °F (Jul 16, 5:53 AM)41% (Jul 16, 3:51 PM)29.59 "Hg (Jul 21, 1:51 PM)
Average66 °F78%29.91 "Hg
* Reported Jul 14 7:51 AM — Jul 29 7:51 AM, Montpelier, Weather by CustomWeather, © 2015

Note: Actual official high and low records may vary slightly from our data, if they occured in-between our weather recording intervals... More about our weather records

Advertising

Montpelier weather history for previous 24 hours

 ConditionsComfort  
Time TempWeatherWind HumidityBarometerVisibility
7:51 AM
Wed, Jul 29
65 °FSunny.No wind97%30.03 "Hg9 mi
7:01 AM63 °FFog.No wind97%30.05 "Hg2 mi
5:51 AM61 °FFog.No wind97%30.03 "Hg0 mi
5:04 AM61 °FFog.No wind97%30.03 "Hg1 mi
3:51 AM61 °FClear.No wind97%30.01 "Hg9 mi
2:51 AM62 °FClear.No wind93%30.02 "Hg7 mi
1:51 AM65 °FPassing clouds.No wind94%30.02 "Hg8 mi
12:51 AM64 °FPassing clouds.No wind94%30.02 "Hg9 mi
11:51 PM
Tue, Jul 28
65 °FClear.No wind91%30.03 "Hg10 mi
10:51 PM67 °FClear.No wind87%30.02 "Hg10 mi
9:51 PM69 °FClear.No wind81%30.02 "Hg10 mi
8:51 PM69 °FSunny.3 mph90%30.01 "Hg10 mi
7:51 PM76 °FSunny.No wind77%30.01 "Hg10 mi
6:51 PM79 °FSunny.No wind65%30.01 "Hg10 mi
5:51 PM80 °FSunny.3 mph52%30.00 "Hg10 mi
4:51 PM82 °FSunny.6 mph44%29.99 "Hg10 mi
3:51 PM84 °FSunny.7 mph46%30.00 "Hg10 mi
2:51 PM82 °FSunny.5 mph49%30.01 "Hg10 mi
1:51 PM82 °FSunny.No wind49%30.01 "Hg10 mi
12:51 PM81 °FSunny.6 mph56%30.02 "Hg10 mi
11:51 AM77 °FSunny.5 mph64%30.03 "Hg10 mi
10:51 AM75 °FSunny.6 mph69%30.03 "Hg10 mi
9:51 AM71 °FSunny.No wind78%30.04 "Hg10 mi
Weather by CustomWeather, © 2015

See weather overviewHow to use our weather pages